Find Starlink 33960

NORAD ID: 63966 Int'l Des: 2025-099 Owner: SPXS Country: US Constellation: starlink operational
LEOCIRCULAR

当前视图

正在加载3D地球...

About Starlink 33960

Starlink 33960 (NORAD 63966) is a starlink constellation satellite (v2 mini) launched May 13, 2025 by SPXS of US. It operates in LEO, CIRCULAR orbit with a mass of 575.00 kg.

即将过境

Passes for default location (London). Set your location on the main map for personalized predictions.

高度历史

Loading altitude history...

两行轨道根数

1 63966U 25099Q 26264.09434396 .00011493 00000-0 42641-3 0 9991
2 63966 43.0041 152.4357 0001608 267.1997 92.8670 15.27587491 77226
Epoch: Sep 21, 2026 • Age: 9 hours

当前状态

高度 482.5 km
远地点 / 近地点 N/A
速度 7.63 km/s
星下点 3.82°N, 21.63°W
发射日期 May 13, 2025
运行时间 1.3 years
类型 internet

技术详情

分类 Payload
质量 575.00 kg
干质量 530.00 kg
长度 0.30 m
跨度 29.00 m
形状 ? Box + pan
制造商 SPXS
平台类型 Starlink V2MO
阶段状态 In Orbit
所有者/国家 SPXS/US

Most Searched